Wind_Speed
25 27 28 29 30 31 32 33 33 34 35 36 37 39 40 40 41 42 43 43 44 44 44 44 45 45 46 46 47 48 48 48 49 49 49 50 51 52 54 56 58 60 62 64 66 67 68 68 69 70 71 71 72 72 72 73 73 72 72 71 70 69 67 65 59 55 57 60 62 63 65 66 66 67 68 66 65 63 60 58 57 57 58 59 60
25 27 29 30 31 32 32 33 33 34 36 38 39 40 41 42 43 44 44 44 44 44 44 44 44 44 45 45 46 46 46 46 47 48 49 51 53 56 58 60 62 63 65 66 67 68 69 70 70 71 72 72 73 73 73 73 72 72 72 72 71 71 69 66 63 59 58 61 63 63 65 67 66 68 70 69 68 67 65 62 60 59 60 60 60
27 28 30 31 32 33 33 34 35 36 38 40 41 42 43 44 45 45 46 46 45 45 44 43 43 44 44 44 44 45 45 46 48 50 53 55 58 60 61 62 63 65 66 67 68 69 70 71 72 72 72 72 73 73 73 73 73 72 72 72 71 71 71 69 66 63 60 61 63 64 65 67 68 68 70 71 71 70 69 67 64 61 61 62 62
29 30 31 32 32 33 34 35 36 38 40 41 42 43 44 45 46 47 47 47 46 45 44 44 44 44 44 44 45 47 48 51 53 55 57 59 60 62 63 65 66 68 69 71 72 73 73 74 74 74 74 74 73 74 74 73 73 72 72 71 71 70 70 70 68 65 62 61 64 65 66 67 69 70 71 71 72 73 72 71 69 65 63 63 63
29 30 31 31 32 32 34 35 37 39 40 42 43 44 45 46 47 47 47 47 47 46 46 46 46 46 47 48 49 51 53 55 57 58 60 61 63 65 67 69 71 73 74 76 77 77 78 78 78 77 77 76 76 75 75 74 74 73 72 71 71 70 69 68 68 66 63 61 62 65 67 68 69 71 72 73 73 74 74 73 72 70 66 64 63
27 28 29 31 32 34 36 37 39 41 42 43 44 44 45 46 47 47 48 48 48 49 49 50 50 50 51 53 54 55 57 58 59 60 62 65 67 70 72 74 76 78 80 81 82 82 82 82 81 81 80 79 78 78 77 76 75 73 72 71 70 70 69 67 66 65 63 61 61 63 67 69 70 70 73 74 75 75 76 75 75 74 71 67 64
26 27 30 32 34 36 38 40 41 43 44 44 45 45 46 46 47 48 49 50 51 52 52 53 53 54 55 57 58 58 59 60 62 64 66 69 71 73 75 78 80 82 84 85 86 86 86 85 84 83 82 81 80 78 77 76 74 73 71 70 70 69 68 68 67 65 63 61 60 61 64 68 69 70 72 75 76 76 76 77 76 76 74 70 66
27 28 30 33 35 37 39 41 43 44 45 46 46 46 47 47 48 49 51 52 53 54 54 55 56 57 59 59 60 60 61 62 64 67 69 72 74 76 78 80 83 85 87 89 89 89 88 87 86 84 83 82 80 78 76 74 72 71 70 70 69 68 68 68 67 65 63 60 59 59 61 64 67 68 70 74 75 76 77 78 78 78 76 72 69
27 30 32 34 36 39 41 43 45 46 47 47 47 48 48 48 49 50 52 53 54 55 56 58 59 60 61 61 61 62 63 65 67 69 72 74 76 78 81 83 85 88 90 91 92 91 89 88 86 85 83 81 79 77 75 73 71 70 69 69 68 68 67 66 66 65 63 60 58 58 58 60 64 66 68 71 73 75 77 78 78 77 76 73 71
29 31 34 36 39 41 43 44 45 46 47 48 49 49 49 49 50 51 52 54 55 57 58 59 60 61 62 62 63 64 65 67 69 72 74 76 79 81 84 86 89 90 92 93 93 92 90 89 87 85 83 80 78 75 73 72 71 71 70 70 69 67 65 64 63 62 60 59 59 58 57 57 61 64 65 68 71 73 76 76 76 76 75 73 72
31 34 37 39 41 43 44 45 46 47 49 49 49 49 49 50 51 52 53 55 57 58 60 61 61 62 63 64 65 66 68 70 72 74 77 79 82 84 87 89 91 93 94 94 93 92 91 89 87 85 82 79 75 73 71 70 70 71 71 70 69 67 64 60 58 57 57 56 57 58 58 57 59 62 63 65 68 71 73 74 74 74 73 71 71
34 37 40 41 43 44 44 45 47 49 50 50 50 50 50 50 51 53 54 56 58 59 61 62 63 64 65 66 67 68 70 72 74 76 79 82 85 87 90 92 94 95 96 95 94 92 91 89 87 84 81 77 73 70 68 68 70 71 70 68 67 65 62 58 53 52 53 54 54 56 57 56 57 59 61 62 65 68 70 70 70 70 69 69 69
37 39 41 42 43 44 46 47 49 51 52 52 51 51 51 52 53 54 55 57 58 60 61 63 64 65 66 67 68 70 72 74 76 79 82 85 87 90 92 94 96 97 97 96 95 93 92 90 87 84 80 77 74 70 67 66 67 68 68 66 64 62 60 56 51 48 48 50 50 51 53 53 54 56 58 59 61 65 67 66 65 66 67 67 67
38 40 41 42 44 46 48 49 51 52 53 52 52 52 52 53 54 54 56 57 59 61 62 63 65 66 67 68 70 72 73 75 78 80 83 86 89 92 94 96 98 98 98 98 96 94 92 89 86 83 80 77 74 71 69 66 65 65 64 62 61 60 57 54 50 46 44 45 45 47 48 49 50 54 56 55 56 61 63 62 62 64 65 64 64
39 41 42 44 46 48 49 50 51 52 53 52 52 53 53 53 54 55 56 57 59 61 62 64 65 67 68 70 71 73 75 77 79 82 85 88 91 94 96 98 99 100 100 99 97 95 92 89 86 83 81 77 74 71 69 67 65 63 61 58 56 56 54 52 49 46 43 41 39 41 45 45 47 51 54 52 52 57 60 59 59 62 63 61 60
41 42 44 46 47 48 49 50 51 52 52 53 53 53 54 54 55 56 57 58 59 61 63 64 66 68 69 71 73 75 76 78 80 83 86 89 92 96 98 100 101 101 101 99 97 94 91 88 85 83 80 76 73 70 68 67 64 62 60 57 54 52 51 48 46 44 42 39 36 36 40 43 45 48 50 49 49 52 55 56 56 58 60 60 59
42 44 45 46 47 48 50 51 52 53 53 54 54 55 55 56 56 57 58 59 60 62 64 65 67 69 70 72 74 76 78 79 81 84 87 91 94 97 100 101 102 102 102 100 97 94 91 88 85 82 79 75 72 69 67 65 63 61 59 57 53 51 49 46 44 40 39 38 36 32 34 39 43 45 46 46 45 47 50 52 54 56 58 59 58
43 44 45 46 48 49 51 52 53 54 55 55 56 56 56 57 58 58 59 60 62 63 65 66 68 69 71 73 76 78 79 80 82 85 88 92 96 99 101 102 103 103 102 100 97 95 92 89 85 81 78 75 72 69 66 63 60 58 57 56 53 50 47 45 43 39 36 36 35 32 30 35 40 42 42 41 41 43 45 48 52 53 55 56 56
43 44 46 47 49 51 52 53 54 55 56 57 58 58 59 59 60 60 60 61 62 64 65 67 68 70 72 75 77 79 80 82 84 87 90 94 97 100 101 102 103 103 102 100 98 95 92 89 85 82 78 75 72 69 65 61 57 54 53 53 52 50 47 44 42 38 35 34 33 31 29 31 35 38 37 37 37 39 42 46 48 49 51 52 53
42 45 47 48 50 52 53 54 56 57 59 59 60 61 62 62 62 61 61 62 63 64 66 67 69 71 74 76 78 80 82 84 86 88 92 95 99 101 102 103 103 102 101 99 98 95 92 88 85 81 78 75 72 69 65 60 56 53 50 49 49 49 46 44 41 37 34 32 31 30 28 28 31 33 33 34 35 37 40 42 44 46 48 50 52
43 45 47 49 51 53 54 56 58 59 61 62 62 63 63 63 63 63 63 63 64 65 67 68 70 72 75 77 79 82 84 85 87 90 93 97 100 102 103 103 103 102 101 99 97 94 90 87 83 80 77 74 71 68 64 59 56 53 49 45 45 45 44 42 39 36 33 31 29 28 27 26 27 29 30 31 33 35 37 38 41 44 47 49 51
44 46 48 50 52 54 56 58 59 61 62 63 64 64 64 64 65 65 65 65 65 66 68 70 71 73 76 78 81 83 85 86 88 91 95 98 101 103 104 104 103 102 101 99 97 93 89 85 82 78 75 72 69 66 63 58 54 52 50 46 43 42 41 39 38 36 32 29 26 25 24 24 24 26 28 29 31 33 34 36 39 42 43 44 47
44 47 49 51 53 55 58 59 61 62 63 64 64 64 64 65 66 66 67 67 67 68 69 71 73 74 77 79 82 84 85 87 89 92 96 100 103 104 105 105 104 102 101 99 96 92 88 84 81 77 74 71 68 64 60 57 53 50 48 46 43 40 38 37 35 33 31 27 24 22 22 21 22 23 25 27 28 30 32 34 36 37 39 42 47
45 48 50 52 54 57 59 61 62 63 63 64 64 65 65 65 66 67 68 68 69 69 70 72 74 76 78 80 82 85 86 88 91 94 98 101 104 105 106 106 104 102 101 98 95 91 88 84 80 76 73 71 67 63 58 55 52 48 46 45 43 40 37 34 32 31 29 26 23 21 19 19 19 21 22 25 26 28 30 31 33 34 37 41 46
46 49 51 53 56 58 60 62 63 63 64 64 65 65 66 66 66 68 69 69 70 71 72 73 75 76 78 81 83 85 87 90 92 95 99 102 105 106 107 106 104 102 100 98 95 92 88 85 81 76 72 69 66 64 59 55 52 49 46 44 43 41 37 34 31 29 27 25 22 20 18 17 17 18 20 22 24 25 27 28 30 32 35 39 42
47 50 52 54 56 58 60 62 63 63 64 65 66 66 67 66 67 68 69 70 71 72 73 74 75 77 79 81 84 86 88 90 93 96 99 103 105 107 107 105 103 101 100 98 95 92 89 86 82 77 72 67 64 62 60 56 53 49 46 44 42 40 37 35 32 29 26 24 22 19 17 16 16 16 18 20 22 23 25 27 29 31 33 37 39
48 50 53 55 57 59 61 62 63 64 65 67 67 68 68 67 67 68 69 70 72 73 74 75 76 78 80 82 85 87 89 91 93 97 100 103 105 106 105 104 102 101 99 97 95 92 89 86 82 79 75 71 67 63 60 57 54 50 47 44 42 39 37 34 33 30 27 24 22 20 17 16 15 15 16 18 20 22 24 26 28 30 32 35 37
49 52 54 56 58 60 62 64 64 65 67 68 69 69 69 68 68 68 69 71 72 74 75 75 77 79 81 83 85 88 90 92 94 96 99 102 104 104 104 103 102 100 99 97 94 91 89 86 83 80 78 76 72 68 63 59 55 52 48 44 42 39 36 33 31 29 27 24 22 20 18 16 15 14 15 16 18 20 23 25 27 29 32 34 36
51 53 55 57 59 61 63 64 65 66 68 69 70 70 69 69 69 69 70 72 73 74 75 76 77 79 81 84 86 89 91 93 94 96 99 101 104 104 104 103 102 100 99 97 94 91 89 86 83 81 79 77 74 70 66 61 57 53 49 45 42 39 37 34 31 28 26 24 22 19 17 16 15 14 14 15 17 19 21 23 26 28 31 33 35
52 54 56 59 61 63 64 65 65 66 68 70 71 71 71 70 70 70 71 72 74 75 76 76 77 79 82 84 87 90 92 93 95 97 99 102 105 105 105 104 102 101 100 98 94 91 89 86 84 80 77 75 73 69 66 62 58 54 49 46 43 40 37 35 33 30 27 25 23 20 17 16 15 15 14 15 15 17 19 22 24 27 29 32 34
53 55 58 60 62 64 65 65 66 67 69 71 72 72 72 71 71 70 71 73 75 76 77 77 78 80 82 85 88 91 93 94 96 98 101 104 105 106 105 105 103 102 100 98 94 91 88 86 83 80 76 74 71 68 65 61 58 54 50 46 43 40 37 34 33 31 28 26 24 22 19 16 15 14 14 14 15 16 18 20 23 25 27 30 33
54 56 58 60 62 64 65 66 67 68 70 72 73 73 73 72 71 71 72 73 75 77 77 78 79 81 83 86 89 91 93 95 96 98 101 104 106 106 106 105 103 102 101 98 95 91 88 85 82 79 76 73 70 67 63 60 57 54 50 46 43 40 37 34 32 30 29 26 24 22 20 18 16 14 14 14 14 15 16 18 21 23 25 27 29
55 57 59 61 62 64 65 67 68 69 70 72 74 74 73 72 72 71 72 74 76 78 78 79 80 82 84 86 89 92 93 94 96 98 102 105 106 106 106 105 103 102 101 99 96 93 89 85 81 78 76 73 70 67 63 59 56 53 49 46 44 41 37 34 32 30 28 26 24 22 21 19 17 15 14 14 13 14 15 17 19 21 23 25 26
57 58 59 61 63 64 66 67 68 69 70 72 73 74 73 73 72 72 72 74 76 78 79 80 81 82 84 87 90 92 93 94 96 99 102 105 106 106 106 105 104 102 102 100 97 93 89 85 81 78 75 73 70 67 64 60 56 52 48 45 43 41 38 34 32 30 28 26 24 22 21 19 18 16 15 14 14 13 14 15 17 20 22 23 25
57 58 59 61 63 65 66 67 68 69 70 72 73 74 73 73 72 72 73 74 77 79 80 80 81 83 84 87 90 92 93 94 96 99 102 105 105 106 106 105 104 104 103 101 97 93 90 86 81 77 75 72 70 67 64 60 57 53 49 45 41 40 38 35 32 30 28 26 24 22 20 19 18 16 15 14 14 14 13 14 16 18 20 21 23
57 59 60 61 63 65 66 67 68 69 70 72 73 74 74 73 71 71 72 74 77 78 79 80 81 83 84 87 90 92 93 94 96 99 102 104 104 105 105 105 104 103 102 100 97 94 90 86 82 77 74 72 70 67 64 60 56 53 49 46 42 39 37 35 32 31 29 27 25 22 20 19 17 16 15 14 14 13 13 14 15 16 17 19 20
58 60 61 62 64 65 66 67 69 70 71 72 74 75 74 72 71 71 72 74 76 78 79 80 81 82 84 87 90 92 93 94 96 99 102 104 104 104 105 105 104 103 102 100 97 94 91 87 83 78 74 72 70 68 64 60 57 53 49 46 43 40 38 35 33 31 29 27 25 23 21 19 17 16 14 13 13 13 13 13 14 15 16 17 19
59 61 62 63 64 65 67 68 69 70 71 73 75 75 74 73 71 71 72 74 76 78 79 80 81 82 84 87 90 92 93 94 96 100 103 104 104 104 104 104 104 103 102 100 97 94 91 88 84 79 75 72 70 68 65 61 58 54 50 47 44 41 39 36 34 31 29 28 26 24 21 20 18 16 14 13 13 13 13 12 13 14 15 16 18
61 62 63 64 65 66 67 68 69 71 72 74 75 76 75 73 71 71 72 74 76 78 80 81 81 82 84 87 90 92 93 94 97 100 102 103 103 103 103 104 104 103 102 100 97 94 91 89 85 81 77 73 70 68 65 61 58 55 51 48 44 41 39 37 35 33 30 28 26 24 22 20 18 16 15 13 12 12 12 12 12 13 14 15 17
61 63 64 64 65 66 67 68 70 71 73 74 76 76 75 73 72 71 72 74 76 79 80 81 82 82 85 88 90 91 92 94 97 100 102 102 102 102 102 103 103 103 102 100 97 94 91 89 86 82 78 74 71 68 65 62 58 55 51 48 45 42 39 37 35 33 31 29 27 25 23 21 18 16 15 13 11 11 11 12 11 12 13 15 16
62 63 64 65 66 66 67 68 70 72 73 75 76 76 75 73 72 72 72 74 77 79 80 81 82 83 85 87 89 90 91 93 96 99 101 101 101 101 101 102 103 103 101 100 97 94 91 88 86 83 79 76 72 69 66 63 59 56 52 49 46 43 40 37 34 32 31 29 28 26 23 21 19 17 15 13 11 10 10 11 11 11 12 14 16
62 63 64 65 65 66 67 69 70 72 74 75 76 76 75 74 72 72 73 75 77 79 80 81 82 83 85 87 88 89 91 93 97 99 101 101 101 101 101 102 102 102 101 99 97 93 90 87 85 82 79 76 74 71 67 64 61 58 54 50 47 44 41 38 35 32 31 29 28 26 24 21 19 17 15 13 12 10 10 10 11 10 11 13 15
62 63 64 65 65 66 67 69 71 72 74 75 76 76 75 74 72 72 73 75 77 79 80 81 82 83 85 86 87 89 90 93 97 99 100 101 101 100 100 101 102 102 101 99 96 94 90 87 85 82 79 76 74 72 68 65 62 59 55 51 47 44 41 38 36 33 31 30 28 26 24 22 20 18 16 14 12 10 9 9 10 10 10 12 13
63 64 65 65 66 67 69 70 71 73 74 76 76 76 75 74 73 72 73 75 76 79 80 81 82 83 85 86 87 88 90 94 97 99 100 101 100 100 100 101 101 102 101 99 97 94 91 87 85 82 78 75 73 72 69 66 63 59 56 53 50 46 42 40 37 34 32 30 28 26 25 22 20 18 16 14 12 10 9 8 9 10 10 11 13
64 64 65 66 67 68 70 71 72 74 75 76 77 76 75 74 72 72 73 74 76 79 80 81 82 83 84 85 86 88 90 94 97 99 100 100 100 100 100 100 101 102 101 99 97 94 91 88 85 83 79 76 73 72 70 67 64 61 58 55 51 48 44 41 38 35 32 30 28 26 25 23 21 18 16 15 13 11 9 8 8 9 10 10 12
64 65 66 67 68 69 71 72 73 74 76 77 77 77 76 74 73 72 72 74 76 79 80 81 82 83 84 85 86 88 90 93 97 99 100 100 100 100 100 100 100 101 101 100 97 95 92 88 85 83 80 77 73 71 70 68 65 62 59 56 52 49 45 42 38 35 33 30 28 26 25 24 21 19 17 15 13 11 10 8 8 8 9 10 11
65 66 67 68 69 70 71 72 73 75 76 77 78 77 76 75 73 73 73 74 76 78 80 81 82 83 83 84 86 88 90 93 96 99 100 100 100 99 99 100 100 101 101 100 98 96 93 89 86 84 81 78 74 72 70 69 67 64 61 57 54 50 46 43 39 36 34 32 30 27 26 24 22 20 18 16 14 12 10 9 8 8 8 9 10
65 66 68 69 70 71 72 73 74 75 76 77 78 78 77 75 74 73 73 74 76 78 79 81 82 83 83 84 85 87 90 93 96 98 99 100 99 99 99 100 100 101 101 100 99 97 94 91 87 85 82 80 76 73 70 69 67 65 62 58 55 52 48 45 42 38 36 33 31 29 26 24 23 21 18 16 14 13 11 9 8 8 8 9 9
66 67 68 70 71 71 72 73 74 75 76 77 77 78 77 76 74 73 73 74 75 77 79 81 82 83 83 84 85 87 90 93 96 98 99 99 99 99 99 100 100 101 101 100 99 97 95 93 89 86 83 81 77 74 71 69 67 66 63 60 56 53 50 47 44 40 37 35 32 30 27 25 23 21 19 17 15 13 11 9 8 8 8 8 9
66 67 69 70 71 72 73 73 74 76 77 77 77 78 77 76 74 73 73 74 75 78 79 81 82 82 83 84 85 87 90 93 95 97 98 99 99 99 99 99 100 100 100 100 99 98 96 94 91 87 84 82 79 76 73 70 68 66 64 62 58 55 52 48 45 41 38 35 33 30 28 26 24 22 20 18 15 14 12 10 8 8 8 8 9
66 67 69 70 71 72 73 74 75 76 77 77 77 77 76 75 74 74 74 74 76 78 79 81 81 82 83 84 85 87 89 92 95 97 98 98 99 98 99 99 100 100 100 100 100 99 98 95 92 89 86 83 80 77 74 72 69 67 65 63 60 56 53 49 46 42 39 36 33 31 29 27 25 23 21 19 16 14 12 11 9 8 8 9 9
Wind_Direction
347 345 343 342 342 341 341 342 343 343 343 344 344 343 342 342 341 340 339 338 337 334 332 330 327 325 323 323 323 323 323 323 323 324 324 325 325 325 324 324 324 323 323 322 320 319 318 316 314 313 311 309 308 306 304 303 302 300 299 297 295 293 290 288 284 280 276 274 271 270 269 268 267 267 266 264 262 259 254 249 247 247 248 249 247
347 344 343 342 343 343 343 344 345 345 345 346 346 345 344 344 344 343 343 342 340 338 335 332 330 328 327 328 328 328 327 328 328 330 330 330 330 329 328 327 326 325 324 323 321 320 319 317 316 314 312 310 308 306 305 303 301 300 298 296 294 292 290 287 284 279 275 272 270 268 267 266 264 264 264 263 262 260 258 253 248 246 247 248 247
346 346 345 345 346 346 345 346 346 346 346 346 346 345 345 346 346 346 345 344 343 341 339 336 334 334 333 333 333 333 333 334 335 336 336 335 333 332 330 328 327 326 325 325 324 322 321 319 317 315 313 311 309 307 305 304 302 300 298 296 294 291 289 287 283 279 275 272 269 267 265 264 262 261 261 261 261 260 259 256 252 247 246 247 247
346 347 347 348 348 347 346 346 346 346 345 345 345 345 346 347 348 348 347 346 345 343 342 340 339 339 338 338 338 339 340 340 341 340 339 336 334 331 330 330 329 329 329 328 327 325 323 321 319 317 315 313 311 309 307 305 303 301 298 296 293 290 288 285 283 279 275 271 269 266 264 262 261 259 258 258 258 258 258 257 255 251 246 245 245
347 348 349 349 349 348 348 347 346 345 344 344 344 345 345 347 348 348 348 347 346 345 344 344 343 343 343 343 343 344 344 344 343 341 338 336 334 333 333 333 333 332 331 330 329 328 326 324 321 319 317 316 314 312 310 308 305 302 300 297 294 291 288 285 282 279 275 271 267 265 263 260 258 258 257 256 256 256 256 256 256 254 250 245 244
347 349 351 350 349 349 348 347 346 344 343 343 343 344 345 346 347 347 348 348 348 347 346 346 346 345 346 346 347 346 345 344 341 339 337 336 336 336 335 335 334 334 333 332 331 330 328 326 323 321 320 318 316 314 312 309 306 303 300 297 294 292 289 286 283 280 276 271 267 264 262 260 258 256 256 255 254 254 255 255 255 254 252 248 244
349 350 351 349 348 347 346 346 345 344 343 343 343 343 344 344 346 347 348 349 349 348 347 347 346 347 347 348 348 346 345 342 340 339 338 337 337 336 336 336 335 335 334 333 332 330 329 327 325 323 321 319 317 315 312 310 307 304 301 298 295 292 289 287 284 280 277 273 268 264 261 260 258 256 254 254 254 253 253 254 254 253 253 251 247
348 348 348 346 345 344 344 345 344 343 343 343 343 342 342 344 345 347 348 349 349 348 347 347 347 348 348 348 347 345 343 341 339 339 338 338 337 337 336 336 336 335 335 334 332 331 329 327 325 323 322 320 318 316 313 310 307 304 301 297 294 291 289 287 285 282 280 276 272 267 263 260 259 257 254 253 253 252 252 252 252 253 253 251 249
344 345 345 344 343 342 342 343 342 341 342 342 342 341 342 343 345 347 348 349 348 348 347 347 347 348 348 347 345 343 341 340 339 339 338 338 337 337 337 337 337 336 335 334 333 331 329 327 325 324 323 321 319 316 313 310 307 304 300 296 294 291 289 288 287 286 284 282 277 272 267 262 260 257 255 253 253 252 251 251 251 252 252 251 249
342 343 343 342 341 340 341 341 340 340 341 342 342 341 341 343 345 346 348 348 348 348 347 347 347 347 347 346 344 343 341 340 339 339 339 338 338 338 338 338 337 337 335 334 333 331 329 328 326 325 324 322 320 317 315 312 309 305 301 298 296 294 292 291 289 288 286 283 279 275 270 264 260 257 254 253 252 251 251 251 250 251 251 250 249
342 342 342 341 340 340 340 340 339 340 342 343 342 341 341 342 344 346 347 348 348 348 347 346 346 346 346 345 344 342 341 340 339 339 339 339 339 339 339 338 338 337 335 334 333 332 330 328 327 327 325 323 321 319 317 314 310 306 303 301 299 298 296 294 292 289 285 281 277 274 270 264 259 257 254 252 250 250 250 250 250 250 250 250 248
342 342 342 341 341 340 340 340 340 341 343 343 343 342 341 342 344 346 347 347 347 347 346 346 345 346 346 345 343 342 341 340 340 340 340 340 340 340 339 339 338 337 336 335 334 333 331 330 329 328 326 325 323 321 319 316 312 308 306 304 302 300 299 297 294 290 285 281 276 273 270 266 261 257 254 251 250 249 250 249 249 250 249 249 248
344 343 343 342 341 341 341 341 342 343 344 344 343 342 342 343 345 346 347 347 347 346 345 345 345 345 345 344 343 342 341 340 340 340 341 341 340 340 339 339 338 337 336 336 335 333 332 331 330 329 328 327 325 323 321 317 313 311 309 307 305 303 302 300 297 292 286 282 278 275 272 269 265 260 256 253 251 250 250 249 248 248 247 246 246
344 343 343 343 342 343 343 344 344 345 345 344 343 342 343 343 345 345 346 346 346 346 345 344 344 344 344 344 343 342 341 341 341 341 341 341 341 340 339 339 338 338 338 337 336 335 333 332 332 331 330 329 327 325 322 319 316 313 311 309 307 306 304 303 300 295 289 284 280 276 272 268 264 261 258 255 251 251 251 249 246 245 245 244 245
344 344 344 345 345 346 346 346 346 347 346 345 344 344 344 344 345 345 345 346 346 345 345 344 343 343 344 344 343 342 342 342 342 342 341 341 341 340 340 339 339 339 338 337 336 335 334 334 334 333 332 330 329 327 324 321 319 316 314 311 309 307 305 304 302 298 294 288 282 275 271 267 261 258 257 254 250 249 250 249 246 245 245 244 244
345 346 347 348 348 349 349 348 349 349 349 348 347 346 345 345 345 346 346 346 346 345 345 344 343 343 343 344 343 343 343 343 342 342 342 341 341 340 340 340 340 339 339 338 337 336 335 336 336 334 333 331 330 328 326 323 322 319 316 314 312 309 307 305 303 300 297 292 285 276 270 267 263 258 257 254 249 247 248 248 246 244 244 244 242
348 350 351 351 351 351 352 352 353 353 352 351 350 349 348 347 347 347 347 346 346 346 345 344 343 343 343 343 344 344 344 343 343 342 342 342 341 341 341 341 340 340 339 338 337 337 337 337 337 335 334 332 331 330 328 326 324 321 318 316 315 312 310 308 306 303 299 294 289 280 271 268 265 261 259 256 252 248 246 245 245 243 242 242 241
351 353 353 353 352 353 354 355 355 355 355 354 353 351 350 349 348 348 348 347 347 346 345 344 343 343 343 344 344 344 344 344 343 343 343 342 342 342 342 341 341 340 340 339 338 339 339 338 338 337 335 334 333 331 330 328 326 323 321 319 317 315 314 311 309 306 302 297 292 286 276 268 265 263 262 259 256 251 246 243 242 241 241 240 240
352 353 353 353 352 353 354 355 355 355 355 355 354 354 353 351 350 350 349 348 347 346 345 344 343 343 343 344 345 345 344 344 344 344 343 343 343 343 343 342 342 341 340 340 340 340 340 339 339 338 337 336 334 333 331 330 328 326 324 321 319 318 316 314 312 309 305 300 294 290 281 272 267 266 264 261 257 253 248 243 241 240 240 239 238
351 352 353 352 352 352 353 353 354 354 354 354 354 354 354 353 352 350 349 348 347 346 344 344 344 344 344 345 345 345 345 345 344 344 343 343 344 344 343 343 342 341 341 341 341 341 341 340 340 339 338 337 336 334 333 332 330 328 326 324 321 319 318 316 314 312 308 303 297 292 285 276 270 267 264 259 254 250 247 244 241 239 238 236 234
350 352 352 351 350 350 351 352 353 353 353 353 353 353 353 353 352 350 349 348 347 346 345 344 344 344 345 345 345 345 345 345 344 344 344 344 344 344 344 343 342 342 342 342 341 341 341 341 341 341 340 338 337 336 335 334 333 331 328 326 323 320 318 317 315 314 311 306 300 294 287 278 271 266 262 258 253 249 247 243 240 237 236 234 232
349 350 350 349 348 349 350 351 352 352 352 352 352 352 352 351 351 350 349 348 348 346 346 345 345 345 345 345 346 346 346 345 344 344 344 345 345 345 344 344 343 343 343 343 342 342 342 342 342 342 341 340 339 338 336 336 336 333 330 328 326 323 321 320 318 316 313 308 302 295 287 279 271 266 261 257 253 249 246 243 239 238 236 234 231
347 349 349 348 348 349 349 350 351 351 351 351 351 350 350 350 350 350 349 348 348 347 346 346 346 345 346 346 346 346 346 345 344 344 345 345 346 345 345 344 344 344 344 343 342 342 343 344 344 343 343 341 340 339 338 337 337 336 333 331 329 327 325 322 320 317 314 310 304 296 288 280 272 265 260 257 253 249 247 244 241 239 235 232 230
346 347 348 347 348 348 349 349 350 349 349 349 349 349 349 349 350 350 349 348 348 347 347 346 346 346 346 346 347 347 346 345 345 345 346 346 346 345 345 345 345 345 344 343 343 344 344 345 344 344 344 343 342 341 340 340 339 339 337 333 331 330 328 325 323 319 316 313 308 301 292 283 274 266 260 256 253 250 248 245 243 239 234 232 231
345 345 346 347 347 348 348 348 348 348 348 348 348 348 349 349 349 349 349 348 348 347 347 347 346 346 346 347 347 347 346 346 345 346 346 346 346 346 345 345 345 345 345 344 344 345 346 345 345 345 345 345 344 343 343 343 342 341 340 337 334 332 331 329 327 323 319 315 311 305 297 288 278 270 263 258 254 251 249 246 243 239 235 234 233
344 344 345 346 346 347 347 347 347 347 347 347 348 348 348 348 348 348 349 348 348 348 348 347 347 347 347 347 347 347 346 346 346 347 347 347 346 346 345 345 345 345 345 345 345 346 347 346 346 345 345 346 347 347 345 345 345 344 342 340 337 335 334 332 330 328 324 320 315 309 301 292 281 272 265 260 255 251 247 244 241 237 235 233 232
343 343 344 344 345 345 346 346 346 347 347 348 348 348 347 347 347 348 348 348 348 348 348 347 347 347 347 347 347 347 347 347 347 347 347 347 346 345 345 345 346 346 347 346 347 347 348 347 347 346 346 348 349 349 348 347 347 346 344 342 340 337 336 335 333 331 329 324 319 314 306 297 286 276 268 262 256 250 246 244 241 237 234 232 230
341 341 342 342 343 344 344 345 346 347 347 348 347 347 347 346 347 347 348 348 348 348 348 348 348 347 347 347 347 347 347 348 348 348 348 347 346 345 345 346 346 347 348 347 348 348 349 349 348 348 348 349 349 349 349 348 348 347 346 344 341 339 337 336 335 332 329 326 322 317 311 304 293 280 271 264 257 252 247 243 240 237 234 232 230
340 340 340 341 342 342 343 344 344 346 346 347 347 346 346 346 346 347 348 348 348 348 348 348 348 347 347 348 348 348 348 348 349 348 347 347 346 345 346 347 347 348 349 349 349 350 350 350 350 350 350 350 350 349 349 348 348 348 346 345 343 340 338 337 336 334 331 328 324 320 315 308 299 287 275 266 259 254 250 245 241 238 236 234 231
338 339 339 340 341 341 342 342 343 344 345 346 346 346 345 345 346 346 347 348 348 348 348 348 347 347 348 348 348 348 348 349 349 348 348 347 346 346 347 347 348 349 350 350 350 351 351 351 351 351 350 350 350 350 349 348 348 348 347 345 344 342 340 338 337 336 335 331 327 323 318 311 303 293 280 269 262 255 250 246 242 239 237 236 234
337 337 338 338 339 339 340 341 341 342 343 345 346 346 345 345 345 345 346 347 348 348 348 348 347 348 348 348 348 348 349 349 349 349 348 347 347 347 348 348 349 350 351 350 351 352 353 353 352 351 351 351 351 350 350 349 349 348 348 346 344 343 342 340 338 337 336 334 330 325 321 315 307 298 286 275 266 259 253 249 244 240 237 236 236
334 335 336 336 337 338 339 340 340 341 343 344 345 345 345 345 344 345 346 347 348 348 348 348 348 348 348 349 349 349 349 350 349 348 348 347 348 348 349 349 350 351 351 351 351 352 353 353 353 352 351 351 351 351 350 350 350 349 348 346 345 343 342 341 340 338 337 335 332 327 322 317 312 304 294 281 270 263 257 253 248 244 241 238 237
332 333 333 334 336 337 338 339 340 341 342 344 345 345 345 344 344 344 345 346 347 347 348 348 348 348 349 349 349 350 350 350 349 348 348 348 348 349 349 349 350 351 352 352 352 352 353 354 354 353 352 352 352 352 351 351 350 350 349 347 345 344 343 342 341 340 338 336 333 329 324 318 313 308 301 290 277 265 257 253 249 246 243 239 236
330 331 332 333 335 336 337 339 340 341 342 343 344 344 344 343 343 344 344 345 346 347 348 348 348 348 349 349 349 350 350 349 349 348 348 348 349 350 349 349 350 352 353 353 352 352 353 354 354 354 353 352 353 353 352 352 351 351 350 349 346 344 343 343 342 341 340 338 335 331 325 320 315 311 307 298 286 272 261 253 248 245 243 240 236
330 331 332 333 334 336 337 338 339 340 341 343 344 344 344 343 343 343 344 345 346 347 348 348 348 348 348 349 349 350 350 350 349 349 349 349 350 350 350 350 351 353 353 353 352 352 353 354 355 355 354 354 353 353 353 353 352 351 351 350 348 346 344 343 343 342 341 339 337 333 327 322 317 314 310 303 293 281 268 258 251 246 243 241 238
331 332 333 333 334 336 337 338 339 339 341 343 344 344 343 343 343 343 343 344 346 347 347 348 348 348 348 349 349 350 350 350 350 349 349 349 350 351 351 351 352 353 353 353 353 353 353 354 355 355 355 355 354 354 354 354 353 353 352 351 350 348 345 344 344 343 342 340 339 335 330 325 320 315 310 304 296 286 274 263 256 249 243 240 237
331 332 333 333 334 335 336 337 338 339 341 342 343 343 343 343 342 342 343 344 345 347 347 347 348 348 348 348 349 350 350 350 350 349 349 350 351 351 351 351 352 353 353 354 353 353 353 354 355 356 356 356 355 355 355 354 354 354 353 352 351 349 347 346 345 345 344 342 340 337 333 328 324 318 311 305 298 289 277 265 258 253 246 239 234
330 331 332 333 334 334 335 336 338 339 340 341 342 343 343 342 342 342 342 344 345 346 347 347 348 348 348 348 349 350 351 351 350 349 349 350 351 352 352 352 352 353 354 354 354 353 354 354 355 356 356 357 357 356 356 356 355 355 355 354 353 351 349 347 346 345 345 343 341 339 335 332 327 322 314 308 301 293 281 269 259 253 248 242 235
330 330 331 332 333 333 334 336 337 339 340 341 342 342 342 342 341 341 342 343 345 346 347 347 347 347 347 348 349 351 351 351 350 349 350 350 351 352 352 352 352 353 354 355 354 354 354 355 355 356 356 357 357 357 357 357 357 357 356 354 354 353 351 349 347 346 346 345 343 341 338 335 331 326 319 312 306 297 286 274 262 254 249 243 237
329 329 330 331 332 333 334 335 337 338 339 340 341 342 341 341 340 341 341 343 344 345 346 347 347 347 347 348 350 351 351 350 350 349 350 350 351 352 353 353 352 353 354 355 355 355 355 355 356 356 356 357 358 358 358 358 358 358 357 356 355 354 353 352 349 347 346 345 344 343 340 338 334 330 323 316 309 300 289 279 266 256 250 245 239
328 329 329 330 331 332 333 334 336 337 338 339 340 341 341 340 340 340 341 342 343 345 346 347 347 347 347 348 350 351 351 350 349 349 350 350 352 353 353 353 353 353 354 355 356 355 355 355 356 356 356 357 357 358 359 359 358 358 359 358 357 355 354 353 351 349 347 346 345 344 342 340 336 332 327 320 312 303 293 282 271 259 250 245 240
327 328 329 329 330 331 332 334 335 337 338 339 340 340 340 340 339 339 340 341 343 344 345 346 346 347 347 348 350 350 350 350 349 349 350 350 352 353 354 354 353 353 353 355 356 356 356 356 356 357 357 357 357 358 359 360 359 359 359 359 358 357 355 354 353 351 349 347 346 344 343 341 338 335 331 325 316 307 296 285 274 262 252 246 241
327 327 328 328 329 330 331 333 334 336 337 338 339 340 340 339 339 339 339 341 342 343 345 346 346 347 347 348 349 350 350 349 349 349 350 351 352 353 354 354 354 353 353 355 356 357 356 356 356 357 358 358 358 358 359 360 0 360 359 359 359 359 357 355 354 354 351 349 347 345 344 342 340 337 333 329 321 312 301 288 277 265 254 246 241
326 326 327 327 328 329 330 332 334 335 336 338 339 339 339 339 338 338 339 339 341 342 344 346 346 346 347 348 349 349 349 349 349 349 350 351 352 353 354 355 354 353 353 354 356 357 357 356 356 357 358 359 359 359 359 360 0 1 0 360 360 359 358 357 356 355 353 350 348 346 344 343 342 339 336 332 326 317 306 292 279 268 256 247 241
325 325 325 326 327 328 330 332 333 334 336 337 338 338 339 338 337 337 338 338 340 342 344 345 346 346 346 347 348 349 348 348 348 349 350 350 352 354 355 355 355 354 353 354 356 358 358 357 357 357 358 359 0 -0 360 360 0 1 1 1 0 360 360 359 357 355 353 352 350 348 346 344 343 341 338 334 330 323 313 298 283 270 259 249 241
323 323 324 324 325 327 329 331 332 334 335 336 337 338 338 337 336 336 337 338 340 342 344 344 345 345 346 347 348 348 348 348 348 349 349 350 352 354 355 355 355 355 354 354 355 357 358 358 358 358 358 360 1 1 1 0 1 1 1 1 1 1 0 359 357 356 355 354 353 351 348 346 344 343 340 337 332 327 318 306 288 272 260 251 242
322 322 322 323 324 326 328 330 332 333 334 335 336 337 337 336 336 336 337 338 340 341 343 343 344 345 346 347 347 347 347 347 348 348 349 350 352 353 355 355 355 355 354 354 355 357 358 359 358 358 359 359 0 1 2 2 1 1 1 2 1 1 0 360 359 358 357 355 354 353 350 348 345 344 342 339 335 330 324 313 296 278 264 251 243
320 321 321 322 323 325 327 329 330 332 333 334 335 336 336 336 335 335 336 337 339 340 341 342 343 345 346 346 346 346 346 347 347 348 349 350 352 353 355 355 356 356 355 354 355 356 358 359 359 359 359 360 0 1 2 3 2 2 2 2 2 1 1 0 -0 359 358 356 355 354 352 350 347 345 344 340 336 333 329 320 304 286 270 255 245
319 320 320 321 322 324 326 327 329 331 332 333 334 335 335 335 334 335 335 336 338 339 340 342 344 345 345 345 345 345 346 346 347 347 349 350 351 353 354 355 356 356 356 355 355 356 358 359 359 359 360 360 0 1 2 3 3 3 2 2 2 2 2 1 1 360 359 357 355 354 353 351 349 347 345 342 339 335 331 324 311 294 279 263 248
318 319 319 320 322 323 325 326 328 330 331 332 333 334 334 334 333 333 334 335 336 338 340 342 343 344 344 344 344 344 345 345 346 347 348 350 351 353 354 355 355 356 356 355 355 356 357 358 359 359 360 360 0 1 1 2 3 3 3 2 2 2 2 2 1 360 359 358 356 355 354 353 351 348 346 344 341 337 332 326 316 302 286 272 255
317 318 319 320 321 322 324 326 327 329 330 331 332 332 333 333 332 332 333 334 336 338 340 342 343 342 342 343 343 344 344 344 345 346 348 349 351 353 354 355 355 356 356 356 356 356 357 358 359 359 360 360 0 1 1 2 3 3 4 3 2 2 2 2 1 0 360 359 358 356 355 354 352 350 347 345 343 339 334 328 320 308 294 280 263
Height
10666 10664 10661 10659 10657 10654 10652 10649 10646 10644 10641 10638 10635 10631 10627 10623 10619 10615 10610 10605 10601 10596 10591 10586 10581 10576 10570 10565 10561 10556 10552 10548 10544 10540 10536 10531 10526 10521 10516 10510 10504 10499 10493 10487 10481 10475 10469 10463 10457 10450 10444 10438 10432 10426 10420 10414 10408 10403 10397 10393 10388 10384 10380 10379 10381 10384 10380 10374 10371 10369 10365 10362 10362 10359 10357 10359 10360 10362 10367 10371 10373 10375 10375 10376 10377
10666 10663 10661 10658 10655 10653 10650 10647 10644 10641 10638 10635 10632 10628 10624 10620 10615 10611 10606 10601 10596 10591 10586 10581 10576 10571 10566 10561 10557 10553 10549 10545 10540 10536 10531 10525 10520 10514 10508 10502 10497 10491 10485 10479 10472 10466 10460 10453 10446 10440 10433 10427 10420 10413 10408 10402 10396 10391 10385 10379 10375 10369 10365 10364 10364 10366 10366 10360 10356 10355 10352 10350 10350 10348 10345 10345 10345 10347 10351 10355 10359 10363 10364 10364 10366
10664 10662 10659 10656 10653 10650 10647 10644 10641 10638 10635 10632 10628 10624 10620 10616 10611 10606 10601 10597 10592 10587 10582 10577 10572 10567 10562 10558 10553 10549 10545 10540 10535 10530 10524 10518 10512 10506 10501 10496 10490 10485 10478 10472 10465 10458 10451 10444 10436 10430 10423 10416 10409 10401 10395 10389 10383 10378 10372 10366 10361 10356 10350 10347 10346 10347 10349 10347 10342 10340 10338 10336 10336 10335 10333 10332 10331 10332 10335 10338 10343 10349 10351 10352 10355
10661 10659 10656 10653 10650 10648 10645 10642 10639 10636 10633 10629 10625 10621 10616 10612 10607 10602 10598 10593 10588 10583 10578 10573 10568 10564 10559 10554 10549 10544 10539 10533 10528 10522 10516 10511 10506 10501 10495 10489 10483 10476 10469 10463 10456 10448 10441 10433 10425 10417 10410 10403 10396 10388 10381 10375 10368 10362 10357 10351 10346 10341 10336 10331 10328 10329 10331 10332 10328 10324 10323 10322 10320 10320 10319 10319 10318 10318 10319 10322 10326 10332 10337 10340 10342
10660 10657 10655 10652 10650 10647 10644 10641 10637 10634 10630 10626 10623 10618 10614 10609 10605 10600 10595 10590 10585 10580 10575 10570 10564 10560 10555 10549 10544 10538 10532 10526 10521 10515 10511 10506 10501 10494 10488 10481 10474 10466 10459 10452 10444 10437 10428 10420 10411 10403 10395 10388 10381 10374 10366 10359 10353 10346 10340 10335 10329 10324 10320 10316 10313 10311 10313 10315 10314 10310 10307 10306 10306 10305 10304 10305 10305 10304 10305 10308 10310 10315 10321 10326 10330
10659 10657 10654 10651 10648 10645 10642 10639 10636 10632 10628 10624 10620 10615 10611 10606 10602 10597 10593 10587 10582 10576 10570 10565 10560 10555 10549 10544 10538 10532 10526 10521 10516 10511 10506 10500 10493 10487 10479 10472 10464 10456 10448 10440 10432 10424 10415 10406 10398 10389 10381 10373 10366 10358 10351 10343 10337 10330 10324 10319 10313 10308 10304 10301 10298 10296 10296 10298 10299 10296 10292 10290 10291 10292 10290 10289 10291 10292 10292 10294 10296 10298 10303 10310 10316
10658 10656 10653 10650 10647 10644 10641 10637 10634 10629 10625 10621 10617 10612 10608 10603 10598 10594 10588 10583 10577 10571 10565 10560 10555 10550 10544 10538 10532 10526 10521 10516 10511 10505 10500 10493 10486 10479 10471 10463 10455 10446 10438 10429 10421 10412 10403 10394 10385 10376 10368 10360 10353 10345 10337 10329 10322 10315 10308 10303 10298 10293 10289 10285 10282 10281 10280 10281 10282 10282 10280 10277 10276 10278 10277 10275 10277 10280 10280 10280 10282 10284 10287 10294 10302
10657 10655 10653 10649 10645 10642 10639 10635 10630 10626 10622 10618 10614 10609 10605 10600 10595 10589 10584 10578 10572 10567 10561 10556 10550 10544 10538 10532 10526 10521 10516 10511 10505 10499 10492 10485 10478 10471 10463 10455 10447 10438 10428 10419 10410 10401 10392 10383 10373 10365 10356 10348 10339 10331 10323 10316 10309 10302 10294 10287 10282 10278 10275 10271 10268 10266 10266 10267 10268 10267 10267 10266 10263 10264 10264 10262 10263 10266 10266 10266 10269 10271 10274 10280 10286
10657 10654 10651 10648 10644 10640 10636 10632 10628 10623 10619 10615 10610 10605 10600 10595 10590 10585 10580 10574 10569 10563 10557 10551 10545 10539 10533 10528 10522 10517 10511 10505 10499 10493 10486 10479 10472 10464 10456 10447 10439 10429 10420 10410 10400 10391 10382 10372 10363 10354 10345 10336 10326 10317 10308 10300 10293 10287 10280 10273 10268 10264 10262 10259 10256 10254 10253 10254 10254 10254 10254 10254 10252 10250 10251 10250 10250 10252 10252 10253 10257 10259 10262 10267 10271
10655 10652 10649 10645 10642 10637 10633 10629 10625 10620 10616 10612 10606 10601 10596 10591 10586 10581 10576 10571 10565 10559 10552 10546 10540 10534 10529 10524 10518 10512 10506 10499 10493 10487 10480 10473 10465 10456 10447 10438 10429 10420 10411 10402 10392 10381 10371 10361 10351 10342 10334 10325 10315 10305 10295 10286 10277 10269 10262 10257 10253 10251 10250 10248 10245 10243 10242 10241 10239 10238 10239 10240 10237 10236 10237 10237 10237 10238 10238 10240 10244 10246 10249 10254 10259
10653 10650 10646 10642 10638 10634 10630 10626 10622 10617 10613 10608 10603 10598 10593 10588 10583 10578 10572 10567 10561 10554 10548 10542 10536 10530 10525 10519 10513 10507 10500 10494 10487 10480 10472 10464 10456 10447 10438 10429 10419 10411 10402 10393 10384 10373 10361 10350 10340 10331 10322 10313 10304 10294 10284 10274 10264 10254 10247 10241 10237 10234 10235 10236 10235 10231 10228 10226 10224 10220 10220 10222 10221 10220 10222 10224 10223 10224 10225 10228 10232 10235 10239 10243 10246
10651 10647 10643 10639 10635 10631 10627 10623 10618 10613 10609 10604 10599 10594 10589 10584 10579 10573 10568 10562 10556 10550 10544 10538 10532 10526 10520 10515 10508 10502 10495 10488 10481 10473 10464 10456 10447 10438 10429 10420 10411 10402 10393 10384 10374 10363 10351 10340 10329 10320 10311 10302 10293 10285 10276 10265 10252 10242 10235 10229 10224 10219 10218 10220 10222 10220 10214 10211 10210 10206 10203 10205 10206 10205 10207 10209 10210 10211 10213 10217 10222 10225 10229 10232 10234
10647 10643 10640 10636 10632 10628 10624 10619 10614 10609 10604 10599 10594 10589 10584 10579 10574 10569 10563 10558 10553 10547 10540 10534 10528 10522 10516 10511 10504 10497 10490 10482 10474 10465 10457 10448 10438 10429 10420 10412 10404 10394 10384 10373 10363 10352 10340 10329 10319 10309 10299 10289 10280 10272 10265 10256 10244 10233 10224 10218 10212 10207 10205 10205 10207 10207 10203 10198 10196 10194 10190 10191 10194 10193 10193 10197 10199 10200 10201 10207 10212 10214 10217 10220 10222
10645 10642 10638 10634 10629 10625 10619 10614 10609 10604 10600 10595 10590 10585 10579 10574 10570 10565 10560 10555 10550 10543 10537 10530 10524 10518 10513 10507 10500 10492 10485 10477 10468 10459 10450 10441 10431 10422 10413 10404 10395 10384 10373 10362 10351 10340 10329 10319 10309 10298 10287 10278 10269 10260 10252 10244 10235 10225 10216 10209 10202 10196 10193 10192 10192 10192 10191 10188 10186 10182 10179 10180 10182 10180 10180 10185 10189 10190 10191 10196 10201 10202 10204 10209 10213
10643 10639 10635 10630 10626 10620 10615 10610 10606 10602 10597 10593 10587 10582 10576 10571 10567 10562 10557 10552 10546 10540 10533 10527 10520 10514 10508 10502 10495 10488 10480 10471 10462 10453 10444 10434 10425 10416 10406 10396 10385 10374 10363 10352 10341 10330 10320 10309 10298 10287 10277 10268 10259 10250 10242 10233 10225 10216 10208 10201 10195 10189 10184 10182 10180 10179 10179 10178 10176 10172 10168 10168 10169 10167 10167 10172 10178 10180 10180 10185 10191 10192 10195 10200 10205
10640 10636 10631 10626 10621 10617 10613 10608 10604 10600 10595 10590 10584 10579 10573 10568 10563 10558 10553 10548 10542 10537 10530 10523 10516 10510 10503 10497 10490 10483 10474 10465 10457 10448 10438 10429 10419 10409 10398 10387 10376 10364 10354 10343 10332 10322 10310 10300 10289 10278 10268 10259 10250 10241 10232 10223 10215 10206 10198 10192 10187 10181 10177 10174 10171 10169 10167 10166 10166 10164 10159 10157 10158 10157 10156 10161 10166 10169 10171 10175 10180 10184 10187 10192 10197
10636 10631 10627 10623 10619 10615 10610 10606 10601 10597 10592 10587 10581 10575 10570 10564 10559 10554 10549 10543 10538 10532 10525 10519 10512 10505 10499 10492 10485 10477 10469 10460 10452 10443 10433 10423 10413 10402 10390 10379 10368 10356 10345 10334 10324 10312 10300 10290 10281 10270 10259 10249 10241 10232 10224 10215 10206 10198 10189 10183 10178 10173 10168 10165 10162 10161 10159 10156 10154 10155 10153 10149 10147 10147 10148 10152 10156 10159 10162 10166 10170 10174 10178 10183 10187
10631 10628 10624 10620 10616 10612 10608 10603 10599 10594 10589 10584 10578 10572 10566 10561 10555 10550 10544 10538 10532 10527 10521 10515 10508 10501 10495 10488 10480 10471 10463 10455 10446 10437 10427 10417 10407 10395 10384 10372 10360 10349 10337 10325 10313 10302 10291 10280 10271 10261 10251 10241 10232 10224 10216 10208 10200 10191 10182 10175 10169 10165 10161 10157 10154 10152 10151 10148 10145 10145 10145 10142 10139 10139 10142 10145 10149 10152 10155 10157 10160 10164 10169 10174 10179
10629 10626 10622 10618 10613 10609 10605 10601 10596 10592 10586 10581 10575 10569 10562 10556 10550 10544 10539 10534 10528 10523 10517 10510 10504 10497 10490 10482 10474 10466 10458 10449 10440 10430 10421 10411 10401 10390 10379 10367 10354 10342 10330 10318 10305 10294 10283 10272 10262 10252 10242 10232 10223 10215 10208 10201 10193 10186 10178 10169 10162 10157 10154 10150 10147 10145 10143 10142 10139 10138 10138 10136 10134 10134 10136 10139 10142 10145 10147 10149 10151 10156 10161 10167 10172
10628 10625 10620 10615 10610 10606 10602 10598 10593 10588 10583 10577 10571 10564 10558 10551 10546 10541 10536 10531 10525 10519 10512 10506 10499 10492 10484 10476 10468 10460 10451 10442 10433 10424 10416 10406 10395 10385 10374 10362 10350 10337 10325 10312 10300 10288 10277 10266 10255 10245 10235 10225 10216 10207 10200 10193 10186 10179 10173 10166 10158 10151 10147 10143 10141 10138 10137 10135 10133 10132 10131 10130 10129 10129 10130 10132 10134 10136 10139 10141 10145 10150 10154 10158 10163
10626 10623 10618 10613 10608 10604 10599 10595 10590 10585 10579 10573 10567 10561 10555 10549 10543 10538 10533 10527 10521 10515 10508 10501 10494 10487 10479 10471 10463 10454 10445 10436 10427 10419 10410 10400 10390 10379 10367 10356 10344 10331 10318 10305 10294 10283 10273 10262 10251 10240 10230 10220 10210 10201 10193 10186 10179 10172 10166 10162 10155 10148 10143 10139 10135 10133 10131 10129 10127 10126 10125 10124 10123 10123 10124 10126 10127 10129 10131 10135 10138 10142 10146 10150 10154
10624 10621 10617 10612 10606 10602 10597 10591 10586 10581 10575 10570 10564 10558 10553 10547 10541 10535 10529 10523 10517 10511 10504 10497 10490 10482 10474 10466 10458 10449 10440 10431 10423 10414 10404 10394 10383 10372 10360 10349 10337 10324 10312 10299 10288 10278 10268 10258 10247 10237 10226 10216 10206 10197 10188 10180 10174 10166 10159 10155 10150 10144 10139 10134 10130 10127 10126 10125 10123 10121 10120 10119 10118 10118 10118 10119 10121 10122 10124 10128 10131 10134 10139 10143 10147
10622 10619 10615 10610 10604 10599 10593 10588 10583 10578 10572 10567 10562 10557 10551 10545 10539 10532 10525 10519 10513 10507 10500 10493 10485 10478 10470 10461 10452 10444 10435 10427 10418 10409 10399 10387 10376 10364 10353 10341 10329 10317 10305 10294 10283 10272 10262 10252 10242 10232 10222 10212 10202 10193 10184 10176 10169 10162 10155 10149 10144 10140 10135 10131 10126 10123 10121 10119 10118 10116 10115 10114 10114 10113 10114 10114 10115 10117 10118 10121 10125 10129 10133 10137 10140
10619 10616 10612 10607 10601 10596 10590 10585 10580 10575 10570 10565 10560 10555 10549 10542 10536 10529 10521 10514 10508 10502 10496 10488 10481 10473 10465 10457 10448 10439 10431 10422 10413 10403 10392 10381 10370 10358 10346 10334 10323 10312 10300 10288 10277 10266 10255 10245 10236 10227 10218 10207 10197 10189 10181 10173 10165 10158 10152 10145 10139 10135 10132 10127 10123 10120 10117 10115 10114 10112 10111 10110 10110 10109 10109 10110 10110 10111 10113 10116 10119 10123 10127 10130 10133
10617 10613 10608 10604 10598 10593 10587 10582 10578 10573 10568 10563 10558 10552 10546 10539 10533 10526 10518 10511 10504 10498 10491 10484 10476 10469 10461 10453 10445 10436 10427 10418 10408 10398 10387 10376 10364 10352 10340 10329 10318 10307 10296 10283 10271 10259 10248 10238 10229 10221 10214 10205 10194 10183 10175 10168 10161 10154 10148 10142 10135 10131 10127 10124 10120 10117 10114 10111 10110 10108 10107 10107 10106 10106 10106 10106 10107 10108 10109 10111 10114 10117 10121 10124 10127
10614 10610 10605 10600 10595 10590 10585 10581 10576 10571 10566 10560 10554 10548 10542 10536 10530 10523 10516 10508 10501 10494 10487 10480 10473 10466 10458 10450 10442 10433 10424 10414 10404 10393 10382 10370 10358 10347 10336 10325 10314 10303 10290 10278 10265 10253 10242 10232 10222 10214 10207 10200 10192 10182 10172 10164 10157 10150 10144 10138 10132 10127 10123 10119 10116 10113 10111 10108 10106 10105 10104 10103 10102 10102 10102 10102 10103 10104 10105 10106 10109 10112 10114 10117 10120
10611 10607 10602 10598 10593 10588 10583 10579 10574 10568 10562 10556 10550 10544 10538 10533 10527 10521 10514 10506 10498 10491 10484 10477 10469 10462 10454 10446 10438 10430 10421 10411 10401 10389 10377 10366 10355 10345 10334 10323 10311 10299 10286 10274 10262 10251 10239 10228 10217 10207 10197 10189 10182 10175 10168 10160 10153 10146 10141 10135 10130 10125 10120 10116 10113 10110 10107 10105 10103 10102 10101 10100 10099 10099 10099 10099 10100 10101 10101 10102 10104 10107 10109 10111 10114
10608 10603 10599 10595 10590 10585 10580 10575 10570 10564 10558 10552 10546 10541 10535 10529 10524 10517 10511 10503 10495 10488 10481 10473 10466 10458 10450 10443 10434 10426 10417 10408 10397 10387 10376 10366 10355 10345 10333 10320 10308 10296 10284 10271 10259 10247 10236 10224 10212 10200 10189 10180 10173 10166 10161 10156 10149 10143 10138 10133 10128 10123 10118 10115 10112 10108 10106 10103 10101 10099 10097 10097 10096 10096 10095 10096 10096 10097 10098 10099 10100 10102 10104 10106 10109
10604 10600 10595 10591 10586 10581 10576 10571 10566 10560 10555 10549 10544 10538 10532 10526 10520 10513 10507 10500 10492 10485 10477 10470 10463 10455 10447 10439 10430 10422 10412 10403 10394 10385 10375 10364 10353 10342 10330 10317 10304 10292 10280 10267 10255 10244 10232 10221 10209 10199 10189 10180 10171 10163 10157 10151 10145 10140 10135 10130 10125 10120 10116 10112 10109 10106 10104 10101 10099 10097 10095 10094 10093 10093 10092 10093 10093 10094 10095 10096 10097 10098 10100 10102 10104
10600 10596 10592 10587 10582 10578 10573 10567 10562 10557 10552 10547 10541 10534 10528 10521 10515 10509 10503 10496 10489 10481 10474 10467 10461 10453 10445 10436 10427 10418 10408 10399 10390 10380 10371 10360 10348 10336 10323 10311 10299 10287 10274 10262 10252 10241 10230 10219 10208 10199 10190 10181 10172 10164 10156 10149 10143 10137 10132 10127 10122 10118 10113 10109 10106 10103 10100 10098 10096 10094 10093 10092 10091 10090 10090 10090 10090 10091 10092 10093 10094 10095 10096 10098 10100
10596 10592 10588 10584 10579 10575 10570 10565 10559 10554 10549 10543 10536 10530 10523 10516 10510 10504 10498 10492 10485 10478 10471 10464 10457 10449 10441 10432 10423 10414 10404 10394 10384 10374 10365 10355 10343 10331 10318 10306 10294 10283 10271 10260 10250 10239 10229 10218 10207 10198 10189 10181 10173 10164 10156 10149 10142 10136 10130 10125 10120 10116 10111 10107 10104 10100 10098 10095 10093 10091 10090 10089 10088 10088 10087 10087 10087 10088 10089 10089 10090 10092 10093 10094 10096
10593 10589 10585 10581 10577 10572 10567 10562 10556 10550 10544 10538 10531 10525 10518 10512 10505 10500 10494 10488 10481 10475 10468 10460 10452 10444 10436 10427 10418 10409 10399 10389 10380 10371 10362 10351 10339 10327 10314 10302 10291 10279 10268 10256 10246 10236 10226 10217 10207 10197 10188 10180 10172 10164 10156 10149 10142 10135 10129 10123 10119 10114 10110 10106 10102 10099 10096 10093 10091 10089 10087 10086 10085 10085 10085 10085 10085 10085 10086 10086 10087 10088 10090 10091 10093
10590 10586 10582 10578 10574 10569 10564 10559 10553 10546 10540 10534 10527 10521 10515 10508 10502 10496 10490 10484 10477 10470 10463 10456 10448 10440 10432 10423 10415 10406 10396 10387 10378 10369 10358 10347 10335 10323 10311 10300 10289 10278 10265 10253 10242 10232 10224 10216 10207 10197 10187 10179 10171 10163 10155 10148 10141 10135 10128 10122 10117 10112 10108 10105 10101 10098 10095 10092 10090 10087 10085 10084 10083 10082 10082 10082 10082 10082 10083 10083 10084 10085 10086 10088 10090
10587 10583 10578 10574 10570 10565 10561 10555 10549 10543 10537 10531 10524 10518 10512 10505 10499 10492 10486 10480 10473 10466 10459 10451 10444 10436 10428 10420 10411 10402 10393 10384 10375 10365 10355 10343 10331 10319 10307 10296 10284 10273 10261 10250 10239 10230 10222 10214 10205 10196 10186 10177 10169 10161 10154 10146 10140 10134 10128 10122 10116 10111 10107 10103 10100 10096 10094 10091 10088 10086 10084 10082 10080 10080 10079 10079 10079 10080 10080 10080 10081 10082 10083 10085 10086
10583 10579 10574 10570 10565 10561 10556 10551 10546 10541 10535 10529 10522 10515 10509 10502 10495 10489 10483 10477 10470 10462 10455 10448 10441 10433 10425 10417 10408 10400 10391 10383 10373 10362 10351 10340 10328 10317 10305 10292 10280 10269 10258 10249 10239 10229 10220 10212 10204 10195 10186 10177 10168 10161 10153 10146 10138 10132 10126 10121 10116 10110 10105 10102 10098 10095 10092 10090 10087 10085 10083 10081 10079 10078 10077 10077 10077 10077 10077 10077 10078 10078 10080 10081 10083
10578 10574 10570 10566 10561 10556 10552 10547 10542 10537 10532 10526 10519 10513 10506 10499 10493 10486 10480 10473 10466 10459 10452 10445 10438 10430 10422 10415 10407 10398 10389 10380 10369 10359 10349 10339 10328 10316 10303 10291 10279 10269 10259 10248 10237 10227 10218 10209 10202 10194 10185 10176 10167 10159 10152 10145 10138 10132 10125 10119 10115 10110 10105 10100 10097 10094 10091 10088 10086 10084 10082 10080 10078 10076 10075 10074 10074 10074 10074 10074 10075 10075 10077 10078 10080
10573 10570 10566 10561 10557 10552 10548 10544 10539 10533 10527 10522 10516 10509 10503 10496 10490 10484 10478 10471 10464 10457 10450 10443 10435 10428 10420 10413 10405 10396 10386 10376 10366 10357 10347 10336 10325 10313 10301 10289 10279 10269 10258 10247 10236 10226 10216 10207 10199 10192 10184 10175 10167 10159 10151 10144 10137 10131 10125 10118 10113 10108 10103 10099 10096 10092 10089 10087 10084 10082 10080 10078 10077 10075 10074 10073 10072 10072 10072 10072 10072 10072 10074 10075 10077
10569 10565 10562 10557 10553 10548 10544 10539 10534 10529 10523 10517 10511 10505 10499 10493 10487 10481 10475 10469 10462 10455 10447 10440 10432 10425 10418 10410 10401 10391 10381 10372 10363 10354 10344 10333 10321 10310 10299 10288 10278 10267 10257 10246 10235 10225 10215 10205 10197 10189 10182 10175 10167 10158 10150 10143 10136 10129 10123 10118 10112 10107 10102 10098 10094 10091 10088 10085 10083 10080 10078 10077 10075 10074 10072 10071 10070 10070 10070 10070 10070 10070 10071 10072 10074
10565 10561 10557 10553 10549 10544 10539 10534 10529 10524 10519 10513 10507 10501 10495 10489 10483 10477 10471 10465 10458 10451 10444 10437 10429 10422 10414 10406 10397 10387 10378 10369 10360 10351 10341 10331 10321 10310 10299 10287 10276 10266 10256 10245 10234 10224 10214 10204 10195 10187 10180 10174 10166 10158 10150 10143 10136 10129 10123 10117 10112 10107 10102 10097 10093 10089 10086 10083 10081 10079 10077 10075 10074 10072 10071 10070 10069 10068 10068 10068 10068 10068 10069 10070 10071
10561 10557 10553 10549 10545 10540 10535 10530 10525 10520 10515 10509 10503 10497 10491 10485 10479 10473 10467 10461 10454 10448 10441 10434 10426 10419 10411 10402 10393 10384 10375 10367 10359 10350 10341 10331 10321 10310 10298 10287 10276 10265 10255 10245 10234 10223 10213 10204 10195 10186 10178 10171 10165 10158 10150 10143 10136 10130 10123 10117 10111 10106 10102 10097 10093 10089 10085 10082 10080 10077 10075 10074 10072 10071 10069 10068 10067 10066 10066 10066 10066 10066 10067 10067 10068
10557 10553 10549 10544 10540 10536 10531 10526 10521 10516 10511 10505 10499 10493 10487 10481 10475 10469 10463 10458 10451 10444 10437 10430 10423 10416 10408 10399 10391 10382 10374 10367 10359 10350 10340 10330 10320 10309 10298 10287 10276 10265 10255 10245 10234 10223 10214 10204 10195 10186 10177 10169 10162 10156 10150 10142 10135 10129 10123 10117 10111 10106 10101 10097 10093 10089 10085 10081 10079 10076 10074 10073 10071 10069 10068 10067 10066 10065 10064 10064 10064 10064 10065 10065 10066
10553 10549 10545 10541 10536 10532 10528 10523 10518 10512 10507 10502 10496 10490 10483 10478 10472 10466 10460 10454 10447 10441 10435 10428 10420 10413 10405 10397 10389 10381 10373 10365 10357 10348 10339 10329 10318 10308 10297 10287 10275 10265 10255 10245 10235 10224 10215 10206 10196 10187 10178 10169 10161 10154 10148 10141 10134 10128 10122 10117 10112 10106 10101 10097 10092 10088 10085 10081 10078 10076 10074 10072 10070 10068 10067 10066 10065 10064 10063 10062 10062 10063 10063 10063 10064
10549 10545 10541 10537 10532 10528 10524 10520 10515 10509 10504 10498 10493 10486 10480 10474 10468 10462 10456 10450 10444 10438 10432 10425 10417 10410 10403 10395 10387 10380 10372 10364 10355 10346 10337 10327 10317 10307 10296 10286 10275 10264 10254 10245 10235 10225 10215 10206 10198 10189 10180 10171 10162 10154 10147 10141 10134 10128 10122 10116 10111 10106 10101 10096 10092 10088 10084 10081 10078 10075 10073 10071 10069 10067 10066 10064 10063 10063 10062 10061 10061 10061 10061 10062 10062
10544 10540 10536 10532 10528 10524 10520 10516 10511 10506 10500 10495 10489 10483 10477 10470 10465 10459 10453 10447 10442 10436 10429 10422 10415 10407 10400 10393 10385 10377 10370 10362 10353 10344 10335 10325 10315 10305 10295 10285 10274 10264 10253 10244 10235 10225 10215 10205 10197 10189 10181 10172 10163 10155 10147 10140 10134 10128 10121 10115 10110 10106 10101 10096 10092 10088 10084 10081 10078 10075 10072 10070 10068 10066 10065 10063 10062 10062 10061 10060 10060 10060 10060 10060 10061
10539 10535 10531 10528 10524 10519 10515 10511 10506 10501 10496 10490 10485 10480 10474 10467 10462 10457 10451 10445 10439 10432 10425 10418 10412 10405 10398 10390 10383 10375 10367 10359 10351 10342 10333 10324 10314 10304 10294 10284 10274 10263 10253 10243 10235 10225 10215 10205 10196 10188 10180 10173 10164 10156 10148 10140 10134 10127 10122 10116 10110 10105 10100 10096 10092 10088 10084 10081 10078 10074 10071 10069 10067 10066 10064 10062 10061 10060 10060 10059 10059 10058 10058 10059 10059
10534 10531 10527 10523 10519 10515 10510 10506 10501 10496 10491 10485 10480 10475 10470 10464 10459 10454 10448 10441 10435 10428 10421 10415 10409 10403 10395 10388 10380 10373 10365 10357 10349 10341 10332 10322 10313 10303 10293 10283 10274 10263 10253 10243 10234 10225 10216 10206 10196 10187 10179 10172 10165 10157 10149 10141 10134 10127 10121 10116 10111 10106 10101 10097 10092 10088 10084 10080 10077 10074 10071 10069 10067 10065 10063 10062 10060 10059 10059 10058 10057 10057 10057 10057 10058
10530 10526 10522 10519 10515 10511 10506 10502 10497 10492 10487 10481 10476 10471 10466 10460 10454 10449 10444 10437 10431 10425 10419 10413 10406 10400 10392 10385 10378 10371 10363 10356 10347 10339 10330 10321 10311 10302 10292 10283 10273 10263 10253 10242 10233 10224 10215 10206 10197 10187 10179 10171 10165 10158 10150 10142 10134 10127 10121 10116 10110 10106 10101 10097 10092 10088 10083 10080 10077 10074 10071 10068 10066 10064 10062 10061 10059 10058 10058 10057 10056 10056 10056 10056 10056
10526 10522 10518 10514 10510 10506 10502 10498 10493 10489 10484 10478 10472 10466 10461 10455 10450 10444 10439 10433 10428 10422 10416 10410 10403 10396 10389 10382 10375 10369 10361 10354 10346 10337 10329 10320 10310 10301 10291 10282 10272 10262 10252 10242 10232 10223 10214 10205 10196 10187 10179 10171 10164 10157 10151 10143 10136 10128 10122 10116 10111 10106 10101 10096 10091 10087 10083 10079 10076 10073 10071 10068 10066 10064 10062 10060 10059 10057 10057 10056 10055 10055 10054 10054 10055
10521 10517 10513 10509 10505 10501 10497 10493 10489 10484 10480 10474 10468 10462 10456 10450 10445 10440 10435 10430 10425 10419 10413 10406 10399 10392 10386 10380 10373 10366 10359 10352 10344 10336 10327 10318 10309 10300 10290 10281 10271 10262 10252 10242 10232 10222 10213 10205 10196 10187 10179 10171 10163 10157 10150 10144 10137 10129 10122 10117 10111 10106 10100 10096 10091 10087 10083 10079 10076 10073 10071 10068 10066 10063 10061 10059 10058 10057 10056 10055 10054 10054 10053 10053 10053
10517 10513 10508 10504 10500 10496 10492 10488 10484 10479 10474 10469 10464 10458 10452 10446 10441 10436 10432 10427 10422 10415 10409 10402 10395 10389 10383 10377 10371 10364 10357 10350 10342 10334 10326 10317 10308 10299 10289 10280 10271 10261 10251 10241 10232 10222 10213 10204 10196 10188 10180 10172 10164 10156 10150 10143 10137 10131 10123 10117 10111 10106 10101 10096 10092 10088 10084 10080 10076 10073 10070 10068 10065 10063 10061 10059 10057 10056 10055 10054 10053 10053 10052 10052 10052
10512 10508 10504 10499 10495 10491 10487 10483 10478 10473 10469 10464 10459 10454 10449 10443 10438 10432 10427 10423 10417 10411 10404 10398 10392 10386 10380 10375 10369 10362 10355 10348 10340 10333 10324 10316 10307 10298 10289 10280 10271 10261 10251 10241 10231 10222 10213 10204 10196 10188 10179 10171 10164 10156 10149 10143 10137 10132 10125 10118 10112 10106 10102 10097 10093 10088 10084 10080 10076 10073 10070 10067 10065 10063 10060 10058 10057 10055 10054 10053 10052 10052 10051 10051 10051